#timestamp,LO_Frequency,Hit 
1505322015.0,286047012.7,N
1505322015.9,286047012.7,N
1505322035.7,286047013.0,N
1505322055.6,286047012.3,N
1505322075.4,286047007.9,N
1505322095.2,286047010.8,N
1505322115.1,286047012.3,P
1505322116.0,286047012.3,P
1505322135.8,286046996.8,P
1505322155.6,286046995.3,N
1505322175.5,286046993.6,N
1505322195.3,286046997.1,N
1505322215.1,286046998.7,N
1505322235.9,286046995.5,N
1505322255.7,286046997.7,N
1505322275.5,286046999.4,N
1505322295.4,286046995.2,N
1505322315.2,286046992.3,N
1505322335.0,286046992.0,N
1505322335.9,286046992.0,N
1505322355.8,286046994.6,N
1505322375.6,286046992.0,N
1505322395.4,286046996.2,N
1505322415.2,286046997.5,N
1505322435.1,286046994.2,N
1505322436.0,286046994.2,N
1505322455.8,286046992.5,N
1505322475.6,286046992.8,N
1505322495.5,286046991.2,N
1505322515.3,286046988.7,N
1505322535.1,286046988.9,N
1505322555.9,286046993.0,N
1505322575.7,286046990.9,N
1505322595.5,286046990.3,N
1505322615.4,286046993.7,N
1505322635.2,286046995.8,N
1505322655.0,286046994.5,N
1505322655.9,286046994.5,N
1505322675.8,286046995.8,N
1505322695.6,286046999.6,N
1505322715.4,286046997.9,N
1505322735.2,286046993.9,N
1505322755.1,286046993.7,N
1505322756.0,286046993.7,N
1505322775.8,286046994.2,N
1505322795.6,286046994.6,N
1505322815.5,286046995.6,N
1505322835.3,286046996.0,N
1505322855.1,286046994.2,N
1505322875.9,286046991.7,P
1505322895.7,286047001.1,N
1505322915.5,286047001.1,N
1505322935.4,286047002.3,N
1505322955.2,286046999.3,N
1505322975.0,286046995.0,N
1505322975.9,286046995.0,N
1505322995.8,286046997.5,N
1505323015.6,286046999.1,N
1505323035.4,286046998.7,N
1505323055.3,286046997.7,N
1505323075.1,286046996.6,N
1505323076.0,286046996.6,N
1505323095.8,286046997.2,N
1505323115.7,286047000.5,N
1505323135.5,286047002.3,N
1505323155.3,286047000.1,N
1505323175.1,286047005.1,N
1505323195.9,286047006.2,N
1505323215.7,286047001.9,N
1505323235.5,286047000.7,N
1505323255.4,286046998.8,N
1505323275.2,286047000.1,N
1505323295.0,286047001.5,N
1505323295.9,286047001.5,N
1505323315.8,286047005.2,N
1505323335.6,286047003.4,N
1505323355.4,286047002.6,N
1505323375.3,286047004.0,N
1505323395.1,286047000.4,N
1505323396.0,286047000.4,N
1505323415.8,286046999.2,N
1505323435.7,286046997.3,N
1505323455.5,286046999.6,N
1505323475.3,286046998.6,N
1505323495.1,286046998.3,N
1505323515.9,286046999.0,N
1505323535.7,286046995.0,N
1505323555.5,286046999.2,N
1505323575.4,286046998.5,N
1505323595.2,286046997.1,N
1505323615.0,286046997.1,N
1505323615.9,286046997.1,N
1505323635.8,286046996.7,N
1505323655.6,286046996.7,N
1505323675.4,286046998.9,N
1505323695.3,286046999.1,N
1505323715.1,286046996.5,N
1505323716.0,286046996.5,N
1505323735.8,286046996.8,N
1505323755.7,286046998.5,N
1505323775.5,286046998.4,N
1505323795.3,286046997.1,N
1505323815.2,286046995.4,N
1505323835.9,286046996.8,N
1505323855.7,286046997.3,N
1505323875.5,286046997.1,N
1505323895.4,286046998.6,N
1505323915.2,286046999.0,N
1505323935.0,286046998.0,N
1505323935.9,286046998.0,N
1505323955.8,286046995.0,P
1505323975.6,286046999.2,N
1505323995.4,286046997.9,N
1505324015.3,286046996.9,N
1505324035.1,286046996.7,N
1505324055.8,286046997.2,N
1505324075.7,286047003.8,P
1505324095.5,286047004.9,N
1505324115.3,286047004.6,N
1505324135.2,286047003.4,N
1505324155.0,286047003.5,N
1505324155.9,286047003.5,N
1505324175.7,286047004.0,N
1505324195.6,286047001.5,N
1505324215.4,286047004.0,N
1505324235.2,286047005.3,N
1505324255.1,286047003.3,N
1505324256.0,286047003.3,N
1505324275.8,286047005.9,P
1505324295.6,286047000.7,N
1505324315.5,286047000.7,N
1505324335.3,286047000.6,N
1505324355.1,286047001.3,N
1505324375.9,286047007.3,P
1505324395.7,286047001.7,N
1505324415.5,286047003.7,N
1505324435.4,286047005.0,N
1505324455.2,286047005.0,N
1505324475.0,286047006.1,P
1505324476.0,286047006.1,P
1505324495.8,286046999.9,N
1505324515.6,286047000.0,N
1505324535.4,286047000.0,N
1505324555.3,286047005.8,N
1505324575.1,286047006.9,N
1505324595.8,286047001.4,N
1505324615.7,286047001.9,N
1505324635.5,286047005.5,N
1505324655.3,286047001.8,N
1505324675.2,286046999.6,N
1505324695.9,286046997.5,N
1505324715.7,286046999.8,N
1505324735.6,286047000.8,N
1505324755.4,286046997.0,N
1505324775.2,286046995.4,N
1505324795.0,286046993.3,N
1505324795.9,286046993.3,N
1505324815.8,286046999.0,N
1505324835.6,286047000.4,N
1505324855.4,286046998.8,N
1505324875.3,286046997.2,N
1505324895.1,286046996.6,N
1505324915.8,286047002.6,N
1505324935.7,286047000.2,N
1505324955.5,286047001.5,N
1505324975.3,286046998.2,N
1505324995.2,286046998.9,N
1505325015.9,286047002.4,N
1505325035.7,286046998.5,N
1505325055.6,286046995.4,N
1505325075.4,286046996.1,N
1505325095.2,286046995.7,N
1505325115.0,286046996.0,N
1505325116.0,286046996.0,N
1505325135.8,286046994.9,N
1505325155.6,286046996.7,N
1505325175.4,286046999.4,N
1505325195.3,286046999.4,N
1505325215.1,286047001.3,N
1505325235.8,286047003.1,N
1505325255.7,286047005.8,N
1505325275.5,286047005.4,N
1505325295.3,286047002.1,N
1505325315.2,286046998.1,N
1505325335.9,286046998.4,N
1505325355.7,286046999.9,N
1505325375.6,286047001.8,N
1505325395.4,286047003.1,N
1505325415.2,286047003.6,N
1505325435.1,286047003.6,N
1505325436.0,286047003.6,N
1505325455.8,286047005.2,N
1505325475.6,286047005.9,N
1505325495.5,286047002.1,N
1505325515.3,286047002.4,N
1505325535.1,286047001.9,N
1505325555.8,286047001.4,N
1505325575.7,286047003.5,N
1505325595.5,286047004.0,N
